Weather History for De Queen, AR

Change the Weather History Date:

Tuesday, February 26, 2013

  Actual Average Record
Temperature  
Mean Temperature 42 °F 48 °F  
Max Temperature 53 °F 61 °F 79 °F (1976)
Min Temperature 31 °F 35 °F 18 °F (1960)
Degree Days  
Heating Degree Days 23 17  
Month to date heating degree days 504 523  
Since 1 July heating degree days 2268 2459  
Cooling Degree Days 0 0  
Month to date cooling degree days 0 0  
Year to date cooling degree days 4 1  
Moisture  
Dew Point 34 °F    
Average Humidity 70    
Maximum Humidity 96    
Minimum Humidity 44    
Precipitation  
Precipitation T in 0.11 in 2.10 in (2000)
Month to date precipitation 1.96 3.50  
Year to date precipitation 3.96 6.82  
Snow  
Snow 0.00 in - - ()
Month to date snowfall 0.0  
Since 1 July snowfall 4.5  
Snow Depth 0.00 in    
Sea Level Pressure  
Sea Level Pressure 29.66 in    
Wind  
Wind Speed 11 mph (West)    
Max Wind Speed 23 mph    
Max Gust Speed 33 mph    
Visibility 9 miles    
Events Rain    
T = Trace of Precipitation, MM = Missing Value Source: NWS Daily Summary

Daily Weather History Graph

Daily Weather History Graph

Search for Another Location

Airport:

Trip Planner

Search our weather history database for the weather conditions in past years. The results will help you decide how hot, cold, wet, or windy it might be!

Date:

Astronomy

Feb. 26, 2013 Rise Set
Actual Time 6:49 AM CST 6:11 PM CST
Civil Twilight 6:24 AM CST 6:36 PM CST
Nautical Twilight 5:55 AM CST 7:05 PM CST
Astronomical Twilight 5:26 AM CST 7:34 PM CST
Moon 7:23 PM CST (2/26) 6:57 AM CST (2/26)
Length of Visible Light 12h 12m
Length of Day
11h 22m
Full, 99% of the Moon is Illuminated
Feb 26
Full
Mar 4
Last Quarter
Mar 11
New
Mar 19
First Quarter
Mar 27
Full

Hourly Weather History & Observations

Time (CST) Temp. Windchill Dew Point Humidity Pressure Visibility Wind Dir Wind Speed Gust Speed Precip Events Conditions
12:33 AM 42.1 °F 37.1 °F 37.9 °F 85% 29.46 in 10.0 mi WSW 8.1 mph - N/A   Mostly Cloudy
12:53 AM 41.0 °F 35.2 °F 37.0 °F 86% 29.45 in 10.0 mi SW 9.2 mph - N/A   Mostly Cloudy
1:39 AM 41.0 °F 34.3 °F 37.9 °F 89% 29.45 in 9.0 mi SW 11.5 mph - N/A   Overcast
1:53 AM 41.0 °F 33.5 °F 39.0 °F 93% 29.45 in 2.0 mi SW 13.8 mph - 0.00 in Rain Light Rain
2:01 AM 41.0 °F 32.5 °F 39.0 °F 93% 29.46 in 3.0 mi WSW 17.3 mph 21.9 mph 0.00 in Rain Light Rain
2:53 AM 39.0 °F 29.3 °F 37.0 °F 93% 29.47 in 10.0 mi West 19.6 mph 25.3 mph 0.00 in   Overcast
3:53 AM 37.9 °F 29.2 °F 35.1 °F 89% 29.49 in 10.0 mi West 15.0 mph 24.2 mph N/A   Overcast
4:15 AM 37.9 °F 27.6 °F 34.0 °F 86% 29.49 in 10.0 mi West 20.7 mph 27.6 mph N/A   Overcast
4:42 AM 37.9 °F 28.2 °F 34.0 °F 86% 29.51 in 10.0 mi West 18.4 mph - N/A   Overcast
4:53 AM 37.9 °F 28.5 °F 34.0 °F 86% 29.52 in 10.0 mi West 17.3 mph 27.6 mph N/A   Overcast
5:28 AM 37.9 °F 28.5 °F 34.0 °F 86% 29.51 in 10.0 mi West 17.3 mph 21.9 mph N/A   Overcast
5:53 AM 39.0 °F 29.9 °F 33.1 °F 79% 29.52 in 10.0 mi West 17.3 mph 23.0 mph N/A   Overcast
6:53 AM 39.0 °F 30.3 °F 33.1 °F 79% 29.55 in 10.0 mi West 16.1 mph 25.3 mph N/A   Overcast
7:53 AM 39.0 °F 30.6 °F 33.1 °F 79% 29.62 in 8.0 mi WNW 15.0 mph 26.5 mph N/A   Overcast
8:53 AM 37.9 °F 29.6 °F 35.1 °F 89% 29.65 in 8.0 mi West 13.8 mph - 0.00 in   Overcast
9:23 AM 39.0 °F 31.0 °F 35.1 °F 86% 29.66 in 10.0 mi West 13.8 mph 21.9 mph N/A   Overcast
9:53 AM 39.0 °F 31.0 °F 34.0 °F 82% 29.67 in 10.0 mi West 13.8 mph - N/A   Overcast
10:53 AM 41.0 °F 32.2 °F 33.1 °F 73% 29.71 in 10.0 mi West 18.4 mph 26.5 mph N/A   Overcast
11:15 AM 42.1 °F 33.9 °F 34.0 °F 73% 29.71 in 10.0 mi West 17.3 mph 21.9 mph N/A   Overcast
11:24 AM 42.1 °F 34.2 °F 34.0 °F 73% 29.71 in 10.0 mi West 16.1 mph 24.2 mph N/A   Overcast
11:53 AM 42.1 °F 34.9 °F 33.1 °F 70% 29.73 in 10.0 mi WNW 13.8 mph 24.2 mph N/A   Overcast
12:53 PM 43.0 °F 36.8 °F 34.0 °F 71% 29.74 in 10.0 mi WNW 11.5 mph 23.0 mph N/A   Overcast
1:25 PM 46.0 °F 39.6 °F 35.1 °F 66% 29.73 in 10.0 mi WNW 15.0 mph 24.2 mph N/A   Mostly Cloudy
1:34 PM 45.0 °F 37.6 °F 34.0 °F 65% 29.74 in 10.0 mi WNW 17.3 mph 24.2 mph N/A   Mostly Cloudy
1:45 PM 46.0 °F 39.6 °F 35.1 °F 66% 29.74 in 10.0 mi WNW 15.0 mph 27.6 mph N/A   Mostly Cloudy
1:53 PM 46.0 °F 38.5 °F 35.1 °F 66% 29.75 in 10.0 mi West 19.6 mph 26.5 mph N/A   Overcast
2:53 PM 48.0 °F - 34.0 °F 58% 29.76 in 10.0 mi WNW 17.3 mph 24.2 mph N/A   Mostly Cloudy
3:53 PM 51.1 °F - 35.1 °F 54% 29.75 in 10.0 mi WNW 13.8 mph 21.9 mph N/A   Partly Cloudy
4:53 PM 52.0 °F - 33.1 °F 49% 29.76 in 10.0 mi WNW 10.4 mph 20.7 mph N/A   Partly Cloudy
5:53 PM 51.1 °F - 30.0 °F 44% 29.77 in 10.0 mi WNW 10.4 mph - N/A   Clear
6:53 PM 46.0 °F 44.8 °F 30.9 °F 56% 29.79 in 10.0 mi WNW 3.5 mph - N/A   Clear
7:53 PM 39.0 °F - 33.1 °F 79% 29.83 in 10.0 mi Calm Calm - N/A   Clear
8:53 PM 36.0 °F - 33.1 °F 89% 29.86 in 10.0 mi Calm Calm - N/A   Clear
9:53 PM 34.0 °F - 32.0 °F 92% 29.88 in 10.0 mi Calm Calm - N/A   Clear
10:53 PM 32.0 °F - 30.9 °F 96% 29.90 in 8.0 mi Calm Calm - N/A   Clear
11:53 PM 32.0 °F - 30.0 °F 92% 29.90 in 6.0 mi Calm Calm - N/A   Clear